THORAD AGENA D DEB, 4745

Orbit data source: Space-Track

THORAD AGENA D DEB, 4745 is space debris in SSO originally from a launch on Wed, 08 Apr 1970 UTC launched from the Air Force Western Test Range (AFWTR). Debris objects in space refer to the collection of defunct objects orbiting the Earth. Examples of debris include non-operational satellites, rocket bodies, and fragments generated from explosions, collisions, or faulty payload assembly.

Loading next visibility...
Identifier
4745, 1970-025CU
Orbit
SSO
Country
Flag of USUS
Related business
Manufacturer
Unknown
Mission
Spacecraft
Bus & Motor
Unknown
Mass
Unknown
Launch date (UTC)
1970-04-08 (56 years ago)
Launch vehicle
Unknown
Launch site
Air Force Western Test Range (AFWTR)
Object type
Payload
Rocket body
Debris
Shape & HBR
Unknown shape, 0.1 m
Radar Cross Section
Small (<0.1 m²)

Expand to show TLE details & history
Last TLE update: 13 hours ago

TLE from 13 hours ago
0 THORAD AGENA D DEB
1  4745U 70025CU  26123.90492079  .00001285  00000-0  92655-3 0  9994
2  4745 100.0973  99.3817 0027068 113.2005 247.2010 13.98758367815089
Epoch: 2026-05-03T21:43Z
TLE epoch observation values (Epoch: 2026-05-03T21:43:05.156Z)
Latitude
-0.00001°
Longitude
-88.19155°
Altitude
908.615 km
Speed
7.394 km/s
True Right ascension
06h 37m 31s
True Declination
0° 00' 00"
Sunlit
Object was in daylight at epoch
Visualization orbit readout
Latitude
Unknown
Longitude
Unknown
Altitude
Unknown
Speed
Unknown
Apparent Right ascension
Unknown
Apparent Declination
Unknown
Sunlit
N/A
Visualization observer readout
Local Sidereal Time
18:44:29
Azimuth
Unknown
Elevation
Unknown
Doppler factor
Unknown
Orbital elements
Apogee altitude
915.044 km
Perigee altitude
875.668 km
Semi-major axis
7,273.493 km
Eccentricity
0.00271
Inclination
100.0973°
RAAN
99.3817°
Arg. of periapsis
113.2005°
True anomaly
246.91543°
Mean anomaly
247.201°
Eccentric anomaly
247.05818°
Mean motion
3.49888 °/min
Orbital period
102.89 mins
BSTAR
0.00092655
Loading maneuver chart data...
Computing Atmospheric mass density...

Documentation

Showing up to 5 results
|